User: anonymous   Login
Location: Unspecified
(0.0000°N, 0.0000°E)
Time: 09:24:43
(UTC+00:00)
Language:

PERSEUS M1 - Orbit

View from above orbital plane
View from above orbital plane
View from above satellite
View from above satellite

Ground track
Ground track

The orbit data is extracted from the following two-line orbital elements,

1 40039U 14033AF  18023.80231828 +.00000107 +00000-0 +18633-4 0  9996
2 40039 097.9059 295.7667 0013095 302.6755 057.3197 14.85939276194522
Epoch (UTC): 23 January 2018 19:15:20
Eccentricity: 0.0013095
inclination: 97.9059°
perigee height: 601 km
apogee height: 620 km
right ascension of ascending node: 295.7667°
argument of perigee: 302.6755°
revolutions per day: 14.85939276
mean anomaly at epoch: 57.3197°
orbit number at epoch: 19452

The dashed part of the orbit path shows where the satellite is in the earth's shadow,  

DLR